Flag for Germany Weather past 2 weeks in Straubing, Bavaria, Germany

Now
77 °F

Clear.


Feels Like: 79 °F
Forecast: 63 / 83 °F
Wind: 3 mph from Southeast

Location: Straubing

Current Time: Jul 6, 2015 at 12:02:43 AM

Latest Report: Jul 5, 2015 at 10:00 PM


Visibility: 16 mi

Pressure: 29.92 "Hg

Humidity: 60%

Dew point: 62 °F

Location of StraubingLocation

Historic Weather in Straubing — Graph

°F

Straubing temperature yesterday

Maximum temperature yesterday: 92 °F (at 4:00 PM)
Minimum temperature yesterday: 64 °F (at 4:00 AM)
Average temperature yesterday: 78 °F

Past Weeks' High & Low Weather Summary

 TemperatureHumidityPressure
High92 °F (Jul 5, 4:00 PM)99% (Jun 22, 2:00 AM)30.27 "Hg (Jun 22, 2:00 AM)
Low44 °F (Jun 25, 5:00 AM)36% (Jul 4, 4:00 PM)29.76 "Hg (Jun 23, 3:00 AM)
Average66 °F72%30.11 "Hg
* Reported Jun 20 10:00 PM — Jul 5 10:00 PM, Straubing, Weather by CustomWeather, © 2015

Note: Actual official high and low records may vary slightly from our data, if they occured in-between our weather recording intervals... More about our weather records

Advertising

Straubing weather history for previous 24 hours

 ConditionsComfort  
Time TempWeatherWind HumidityBarometerVisibility
10:00 PM
Sun, Jul 5
77 °FClear.3 mph60%29.92 "Hg16 mi
9:00 PM80 °FSunny.3 mph62%29.91 "Hg13 mi
8:00 PM85 °FSunny.5 mph57%29.91 "Hg13 mi
7:00 PM88 °FSunny.5 mph54%29.92 "Hg10 mi
6:00 PM90 °FSunny.5 mph49%29.93 "Hg10 mi
4:00 PM92 °FSunny.5 mph43%29.96 "Hg11 mi
3:00 PM91 °FSunny.5 mph44%29.97 "Hg10 mi
2:00 PM89 °FSunny.5 mph52%30.00 "Hg7 mi
1:00 PM86 °FSunny.5 mph55%30.02 "Hg7 mi
12:00 PM83 °FSunny.5 mph57%30.04 "Hg9 mi
10:00 AM79 °FSunny.5 mph62%30.06 "Hg4 mi
9:00 AM77 °FSunny.3 mph64%30.08 "Hg4 mi
8:00 AM75 °FSunny.2 mph71%30.09 "Hg9 mi
7:00 AM70 °FSunny.1 mph81%30.09 "Hg9 mi
4:00 AM64 °FClear.2 mph93%30.11 "Hg6 mi
3:00 AM66 °FClear.1 mph90%30.11 "Hg6 mi
2:00 AM66 °FClear.1 mph90%30.12 "Hg7 mi
1:00 AM66 °FClear.2 mph92%30.11 "Hg6 mi
12:00 AM67 °FClear.2 mph91%30.11 "Hg6 mi
Weather by CustomWeather, © 2015

See weather overviewHow to use our weather pages